Location: Chacón
(10.5789°N, 66.9317°W)
Time: 14:58:06
(UTC+00:00)

Cosmos 1727 Rocket - Pass Details

Date: 12 August 2024
Orbit: 960 x 997 km, 82.9° (Epoch: 08 September)

Event Time Altitude Azimuth Distance (km) Brightness Sun altitude
Rises 23:48:44 0° 5° (N) 3,640 7.2 -15.3°
Reaches altitude 10° 23:51:19 10° 10° (N) 2,690 6.4 -15.9°
Maximum altitude 23:57:17 52° 86° (E) 1,174 4.1 -17.3°
Enters shadow 00:02:20 15° 158° (SSE) 2,368 5.6 -18.5°
